K5BOU Weather Reports


time (UTC)temp
C
wind
direction
speed
KPH
gust
KPH
rain 1hr
cm
rain 24hr
cm
rain mn
cm
humidity
%
barometer
mb
20260502163159 21 126 0.0 9.7 0.00 0.00 0.00 67 1018.8
20260502162656 21 113 1.6 9.7 0.00 0.00 0.00 67 1018.7
20260502162153 21 232 1.6 9.7 0.00 0.00 0.00 69 1018.8
20260502161650 20 27 3.2 11.3 0.00 0.00 0.00 68 1018.7
20260502161146 20 28 4.8 9.7 0.00 0.00 0.00 70 1018.8
20260502160645 20 87 6.4 9.7 0.00 0.00 0.00 70 1018.7
20260502160144 20 94 4.8 14.5 0.00 0.00 0.00 71 1018.7
20260502152103 18 60 6.4 11.3 0.00 0.00 0.00 76 1018.6
20260502151600 18 80 1.6 8.0 0.00 0.00 0.00 78 1018.5
20260502151058 18 101 3.2 9.7 0.00 0.00 0.00 79 1018.4
20260502150555 17 114 0.0 4.8 0.00 0.00 0.00 79 1018.7
20260502130440 13 87 1.6 12.9 0.00 0.00 0.00 99 1017.2
20260502123422 12 97 0.0 3.2 0.00 0.00 0.00 99 1016.9
20260502122920 11 165 0.0 4.8 0.00 0.00 0.00 99 1016.9
20260502122416 11 144 3.2 3.2 0.00 0.00 0.00 99 1016.8
20260502121914 11 290 0.0 3.2 0.00 0.00 0.00 99 1016.8
20260502121411 11 172 0.0 4.8 0.00 0.00 0.00 99 1016.6
20260502120908 11 163 0.0 4.8 0.00 0.00 0.00 99 1016.6
20260502120404 11 164 0.0 0.0 0.00 0.00 0.00 99 1016.4
20260502115902 11 154 0.0 0.0 0.00 0.00 0.00 99 1016.3
20260502115359 11 178 0.0 1.6 0.00 0.00 0.00 99 1016.5
20260502114855 11 108 0.0 1.6 0.00 0.00 0.00 99 1016.3
20260502114352 11 136 0.0 1.6 0.00 0.00 0.00 99 1016.2
20260502113849 11 132 0.0 1.6 0.00 0.00 0.00 99 1016.2
20260502113346 11 39 1.6 3.2 0.00 0.00 0.00 99 1016.3
20260502112845 11 136 0.0 1.6 0.00 0.00 0.00 99 1016.0
20260502112342 11 187 0.0 1.6 0.00 0.00 0.00 99 1016.1
20260502111839 11 261 1.6 1.6 0.00 0.00 0.00 99 1016.1
20260502111337 11 185 0.0 0.0 0.00 0.00 0.00 99 1015.9
20260502110834 11 166 0.0 0.0 0.00 0.00 0.00 99 1016.1
20260502110332 11 181 0.0 0.0 0.00 0.00 0.00 99 1015.9
20260502105829 11 196 0.0 0.0 0.00 0.00 0.00 99 1016.1
20260502105326 11 201 0.0 0.0 0.00 0.00 0.00 99 1015.8
20260502104824 12 201 0.0 0.0 0.00 0.00 0.00 99 1015.9
20260502104321 12 190 0.0 0.0 0.00 0.00 0.00 99 1015.6
20260502103818 12 167 0.0 0.0 0.00 0.00 0.00 99 1015.6
20260502103315 12 160 0.0 0.0 0.00 0.00 0.00 99 1015.5
20260502102813 12 155 0.0 0.0 0.00 0.00 0.00 98 1015.5
20260502102308 12 167 0.0 0.0 0.00 0.00 0.00 98 1015.4
20260502101807 12 173 0.0 0.0 0.00 0.00 0.00 97 1015.4
20260502101304 12 154 0.0 3.2 0.00 0.00 0.00 97 1015.3
20260502100803 12 143 0.0 0.0 0.00 0.00 0.00 96 1015.2
20260502100301 12 123 0.0 3.2 0.00 0.00 0.00 96 1015.1
20260502091235 13 28 1.6 8.0 0.00 0.00 0.00 96 1014.1
20260502090732 13 91 1.6 12.9 0.00 0.00 0.00 97 1014.0
20260502090229 13 117 0.0 3.2 0.00 0.00 0.00 97 1013.9
20260502071130 12 119 0.0 8.0 0.00 0.00 0.00 99 1014.0
20260502070628 12 56 0.0 4.8 0.00 0.00 0.00 99 1014.0
20260502070126 12 106 1.6 4.8 0.00 0.00 0.00 99 1014.0
20260502065624 12 44 0.0 3.2 0.00 0.00 0.00 99 1014.2
20260502065121 12 19 3.2 11.3 0.00 0.00 0.00 99 1014.1
20260502064620 12 65 0.0 4.8 0.00 0.00 0.00 99 1014.0
20260502064116 12 43 3.2 8.0 0.00 0.00 0.00 99 1014.0
20260502063614 12 81 0.0 8.0 0.00 0.00 0.00 99 1014.1
20260502063111 12 17 1.6 3.2 0.00 0.00 0.00 99 1014.0
20260502062609 12 96 0.0 4.8 0.00 0.00 0.00 99 1013.9
20260502062106 12 108 0.0 4.8 0.00 0.00 0.00 99 1014.0
20260502061604 12 27 4.8 9.7 0.00 0.00 0.00 99 1013.7
20260502061101 12 76 1.6 3.2 0.00 0.00 0.00 99 1013.8
20260502060556 12 91 1.6 12.9 0.00 0.00 0.00 99 1013.7
20260502060054 12 62 4.8 9.7 0.00 0.00 0.00 99 1013.8
20260502055551 12 65 3.2 4.8 0.00 0.00 0.00 99 1013.7
20260502055049 12 38 1.6 20.9 0.00 0.00 0.00 99 1013.9
20260502054548 12 40 4.8 9.7 0.00 0.00 0.00 99 1013.7
20260502054044 12 94 0.0 11.3 0.00 0.00 0.00 99 1013.7
20260502053541 12 135 0.0 8.0 0.00 0.00 0.00 99 1013.7
20260502053039 12 115 0.0 3.2 0.00 0.00 0.00 99 1013.7
20260502052538 12 102 1.6 3.2 0.00 0.00 0.00 99 1013.7
20260502052035 13 91 0.0 3.2 0.00 0.00 0.00 99 1013.4
20260502051533 13 96 1.6 4.8 0.00 0.00 0.00 99 1013.7
20260502051030 12 95 1.6 9.7 0.00 0.00 0.00 99 1013.6
20260502050526 12 22 1.6 8.0 0.00 0.00 0.00 99 1013.8
20260502050024 12 70 0.0 9.7 0.00 9.91 9.91 99 1013.5
20260502045520 12 62 3.2 9.7 0.00 9.91 9.91 99 1013.2
20260502045017 12 106 1.6 4.8 0.00 9.91 9.91 99 1013.3
20260502044514 12 104 0.0 9.7 0.00 9.91 9.91 99 1013.4
20260502044010 12 127 0.0 9.7 0.00 9.91 9.91 99 1013.2
20260502043508 12 128 4.8 12.9 0.00 9.91 9.91 99 1013.3
20260502043004 12 21 1.6 14.5 0.00 9.91 9.91 99 1013.4
20260502042459 12 71 1.6 8.0 0.00 9.91 9.91 99 1013.5
20260502041957 12 150 0.0 4.8 0.00 9.91 9.91 99 1013.9
20260502041455 12 119 1.6 4.8 0.00 9.91 9.91 99 1013.7
20260502040951 12 93 1.6 9.7 0.00 9.91 9.91 99 1013.6
20260502040448 13 105 0.0 8.0 0.00 9.91 9.91 99 1013.6
20260502035944 12 37 4.8 12.9 0.00 9.91 9.91 99 1013.4
20260502035440 13 100 0.0 9.7 0.00 9.91 9.91 99 1013.3
20260502034938 13 66 1.6 4.8 0.00 9.91 9.91 99 1013.5
20260502034437 13 140 0.0 4.8 0.00 9.91 9.91 99 1013.5
20260502033935 13 112 0.0 11.3 0.00 9.91 9.91 99 1013.2
20260502033432 13 90 0.0 4.8 0.00 9.91 9.91 99 1013.3
20260502032928 13 107 0.0 3.2 0.00 9.91 9.91 99 1013.4
20260502032425 13 82 3.2 9.7 0.00 9.91 9.91 99 1013.1
20260502031922 13 86 0.0 9.7 0.00 9.91 9.91 99 1013.1
20260502031421 13 93 0.0 8.0 0.00 9.91 9.91 99 1012.9
20260502030918 13 132 0.0 8.0 0.00 9.91 9.91 99 1012.9
20260502030416 13 105 0.0 9.7 0.00 9.91 9.91 99 1012.9
20260502025914 13 25 0.0 1.6 0.00 9.91 9.91 99 1012.6
20260502025411 13 27 1.6 12.9 0.00 9.91 9.91 99 1012.3
20260502024909 13 104 1.6 14.5 0.00 9.91 9.91 99 1012.3
20260502024407 13 49 3.2 8.0 0.00 9.91 9.91 99 1011.7
20260502023904 13 103 1.6 8.0 0.00 9.91 9.91 99 1011.7
20260502023401 13 100 3.2 11.3 0.00 9.91 9.91 99 1011.5
20260502022859 13 104 1.6 8.0 0.00 9.91 9.91 99 1011.7
20260502022355 14 124 1.6 12.9 0.00 9.91 9.91 99 1011.4
20260502021852 14 62 1.6 9.7 0.00 9.91 9.91 99 1011.4
20260502021350 14 27 1.6 8.0 0.00 9.91 9.91 99 1011.1
20260502020847 14 54 3.2 9.7 0.00 9.91 9.91 99 1010.8
20260502020344 15 135 0.0 1.6 0.00 9.91 9.91 99 1011.2
20260502015841 15 87 1.6 3.2 0.00 9.91 9.91 99 1011.3
20260502015338 14 139 0.0 0.0 0.13 9.91 9.91 99 1011.3
20260502014835 14 58 1.6 4.8 0.13 9.91 9.91 99 1011.3
20260502014333 14 93 1.6 9.7 0.18 9.88 9.88 99 1011.1
20260502013828 14 63 0.0 11.3 0.18 9.88 9.88 99 1011.0
20260502013324 14 117 0.0 4.8 0.00 9.86 9.86 99 1011.2
20260502012821 14 39 1.6 3.2 0.13 9.86 9.86 99 1011.2
20260502012319 14 139 1.6 3.2 0.18 9.83 9.83 99 1011.2
20260502011816 14 79 4.8 11.3 0.18 9.83 9.83 99 1010.9
20260502011312 15 105 1.6 3.2 0.00 9.80 9.80 99 1010.8
20260502010809 15 79 0.0 8.0 0.00 9.80 9.80 99 1010.5
20260502010305 15 109 0.0 8.0 0.18 9.80 9.80 99 1010.3
20260502005802 15 120 1.6 3.2 0.30 9.80 9.80 99 1010.2
20260502005301 15 352 3.2 8.0 0.43 9.78 9.78 99 1009.9
20260502004757 15 27 1.6 9.7 0.30 9.75 9.75 99 1010.0
20260502004253 15 3 4.8 9.7 0.00 9.70 9.70 99 1010.6
20260502003751 15 88 4.8 9.7 0.00 9.70 9.70 99 1010.5
20260502003248 15 318 4.8 8.0 0.18 9.70 9.70 99 1010.1
20260502002744 15 62 0.0 9.7 0.00 9.68 9.68 99 1009.7
20260502002242 15 10 1.6 8.0 0.00 9.68 9.68 99 1009.5
20260502001739 15 74 1.6 4.8 0.00 9.68 9.68 99 1009.4
20260502001237 15 17 3.2 9.7 0.13 9.68 9.68 99 1009.7
20260502000734 15 72 0.0 9.7 0.30 9.68 9.68 99 1009.5
20260502000233 15 109 1.6 3.2 0.30 9.65 9.65 99 1009.7
20260501235732 15 63 1.6 11.3 0.43 9.63 9.63 99 1009.4
20260501235229 15 140 0.0 4.8 0.79 9.58 9.58 99 1009.3
20260501234725 15 15 1.6 9.7 1.37 9.53 9.53 99 1009.3
20260501234222 15 121 1.6 3.2 1.85 9.42 9.42 99 1009.9
20260501233720 15 39 0.0 8.0 1.07 9.27 9.27 99 1010.0
20260501233217 15 43 0.0 12.9 0.18 9.09 9.09 99 1009.5
20260501232713 15 62 1.6 9.7 0.18 9.09 9.09 99 1009.0
20260501232210 15 105 1.6 8.0 0.00 9.07 9.07 99 1008.1
20260501231708 15 9 4.8 17.7 0.13 9.07 9.07 99 1007.5
20260501231206 15 43 11.3 14.5 0.13 9.07 9.07 99 1007.4
20260501230704 15 17 0.0 9.7 0.18 9.04 9.04 99 1007.9
20260501230202 15 36 1.6 4.8 0.30 9.02 9.02 99 1008.7
20260501225659 15 31 1.6 4.8 0.43 9.02 9.02 99 1008.9
20260501225156 15 111 0.0 9.7 0.43 8.97 8.97 99 1008.8
20260501224652 15 127 0.0 12.9 0.48 8.94 8.94 99 1008.1
20260501224150 15 112 3.2 8.0 0.18 8.89 8.89 99 1008.2
20260501223646 15 40 4.8 11.3 0.00 8.86 8.86 99 1007.9
20260501223143 15 94 3.2 9.7 0.00 8.86 8.86 99 1007.7
20260501222638 16 234 1.6 8.0 0.00 8.86 8.86 99 1007.9
20260501222136 16 63 4.8 17.7 0.00 8.86 8.86 99 1007.7
20260501221632 16 26 4.8 16.1 0.00 8.86 8.86 99 1007.3
20260501221130 16 23 4.8 14.5 0.00 8.86 8.86 99 1007.2
20260501220628 16 46 6.4 16.1 0.00 8.86 8.86 99 1007.5
20260501220124 16 3 6.4 14.5 0.00 8.86 8.86 99 1007.6
20260501215621 16 40 1.6 17.7 0.00 8.86 8.86 99 1007.8
20260501215116 16 123 3.2 16.1 0.18 8.86 8.86 99 1007.8
20260501214611 16 44 1.6 9.7 0.30 8.86 8.86 99 1008.2
20260501214107 16 132 1.6 11.3 0.71 8.84 8.84 99 1008.2
20260501213604 16 151 0.0 8.0 1.32 8.79 8.79 99 1008.4
20260501213101 16 86 4.8 12.9 1.98 8.69 8.69 99 1008.1
20260501212557 16 117 0.0 8.0 3.66 8.53 8.53 99 1008.7
20260501212054 16 28 3.2 9.7 3.66 8.28 8.28 99 1009.0
20260501211551 16 45 4.8 4.8 2.16 7.77 7.77 99 1007.9
20260501211049 16 98 3.2 9.7 2.16 7.59 7.59 99 1008.4
20260501210544 16 87 1.6 9.7 2.29 7.39 7.39 99 1008.4
20260501210042 16 44 1.6 4.8 1.32 7.19 7.19 99 1008.3
20260501205538 16 112 1.6 8.0 0.48 6.99 6.99 99 1007.9
20260501205036 16 146 0.0 8.0 0.48 6.93 6.93 99 1007.9
20260501204532 16 110 1.6 9.7 0.30 6.88 6.88 99 1006.8
20260501204028 16 132 3.2 9.7 0.30 6.86 6.86 99 1006.8
20260501203525 16 74 0.0 11.3 0.61 6.83 6.83 99 1007.0
20260501203023 16 137 0.0 8.0 0.61 6.81 6.81 99 1007.0
20260501202520 16 129 1.6 11.3 0.61 6.73 6.73 99 1006.6
20260501202016 16 119 1.6 11.3 0.66 6.68 6.68 99 1006.6
20260501201513 16 91 1.6 4.8 0.79 6.63 6.63 99 1007.0
20260501201010 16 99 3.2 9.7 1.07 6.55 6.55 99 1007.4
20260501200507 16 77 4.8 8.0 0.71 6.48 6.48 99 1007.4
20260501200004 16 98 0.0 3.2 0.13 6.38 6.38 99 1007.2
20260501195501 16 144 0.0 3.2 0.00 6.35 6.35 99 1007.0
20260501194956 16 109 0.0 1.6 0.00 6.35 6.35 99 1006.9
20260501194452 16 75 4.8 4.8 0.00 6.35 6.35 99 1006.7
20260501193948 17 83 1.6 4.8 0.00 6.35 6.35 99 1006.4
20260501193447 17 162 0.0 4.8 0.18 6.35 6.35 99 1006.6
20260501192944 17 123 0.0 9.7 0.18 6.35 6.35 99 1006.7
20260501192441 17 27 3.2 11.3 0.18 6.32 6.32 99 1006.5
20260501191939 17 80 0.0 4.8 0.18 6.32 6.32 99 1006.6
20260501191436 17 195 0.0 1.6 0.13 6.30 6.30 99 1006.7
20260501190933 16 108 3.2 4.8 1.32 6.30 6.30 99 1006.9
20260501190428 16 162 0.0 4.8 2.11 6.25 6.25 99 1007.0
20260501185923 16 63 3.2 4.8 0.97 6.02 6.02 99 1007.1
20260501185420 16 34 1.6 4.8 0.48 5.89 5.89 99 1007.5
20260501184915 16 163 0.0 3.2 0.18 5.84 5.84 99 1007.4
20260501184412 16 12 3.2 4.8 0.00 5.82 5.82 99 1006.6
20260501183907 16 35 3.2 11.3 0.13 5.82 5.82 99 1006.3
20260501183405 16 354 4.8 9.7 0.30 5.82 5.82 99 1006.0
20260501182901 16 114 8.0 20.9 0.48 5.79 5.79 99 1005.7
20260501182358 17 45 3.2 17.7 4.55 5.77 5.77 99 1006.0
20260501181854 17 110 1.6 9.7 6.65 5.54 5.54 99 1007.1
20260501181352 17 127 3.2 8.0 2.46 4.72 4.72 99 1007.5
20260501180849 17 325 4.8 8.0 0.61 4.39 4.39 99 1008.7
20260501180345 17 246 4.8 8.0 0.30 4.32 4.32 99 1007.3
20260501175842 17 25 1.6 12.9 0.48 4.29 4.29 99 1006.2
20260501175339 17 148 4.8 16.1 1.68 4.27 4.27 99 1006.2
20260501174836 17 206 3.2 9.7 3.35 4.19 4.19 99 1006.6
20260501174333 17 169 0.0 17.7 2.77 3.89 3.89 99 1007.5
20260501173831 17 86 3.2 11.3 1.19 3.61 3.61 99 1008.1
20260501173328 17 334 4.8 11.3 0.61 3.43 3.43 99 1008.4
20260501172824 17 16 4.8 11.3 0.89 3.38 3.38 99 1007.9
20260501172319 17 99 3.2 11.3 1.02 3.33 3.33 99 1007.7
20260501171815 17 119 1.6 4.8 0.79 3.23 3.23 99 1007.9
20260501171312 17 85 4.8 8.0 0.36 3.15 3.15 99 1008.2
20260501170808 17 105 0.0 3.2 0.13 3.10 3.10 99 1008.1
20260501170306 17 354 0.0 16.1 0.13 3.10 3.10 99 1008.0
20260501165803 17 31 4.8 8.0 0.18 3.07 3.07 99 1007.9
20260501165301 17 48 4.8 12.9 0.43 3.05 3.05 99 1008.0
20260501164758 17 25 6.4 14.5 0.30 3.02 3.02 99 1008.6
20260501164255 17 115 1.6 8.0 0.18 2.97 2.97 99 1008.9
20260501163751 17 40 3.2 9.7 0.00 2.95 2.95 99 1008.7